Location: Black Creek
(40.9000°S, 175.5500°E)
Time: 04:28:58
(UTC+00:00)

ACS3 Solar Sail - Visible Passes

Search period start: 14 October 2024 00:00
Search period end: 24 October 2024 00:00
Orbit: 960 x 1033 km, 97.5° (Epoch: 13 October)

Date Brightness Start Highest point End Pass type
(mag) Time Alt. Az. Time Alt. Az. Time Alt. Az.
14 Oct 1.9 08:33:14 10° SSE 08:39:34 57° E 08:42:09 35° NNE visible
14 Oct 3.8 10:17:58 10° SSW 10:22:57 25° WSW 10:27:16 13° WNW visible
15 Oct 3.4 07:22:35 10° SE 07:26:10 15° E 07:28:48 12° ENE visible
15 Oct 1.9 09:04:16 10° S 09:10:43 83° WSW 09:13:56 32° NNW visible
15 Oct 4.4 10:50:26 10° SSW 10:53:36 14° WSW 10:56:47 10° W visible
16 Oct 2.7 07:52:16 10° SE 07:57:42 28° E 08:00:36 20° NE visible
16 Oct 2.7 09:35:37 10° S 09:41:44 48° WSW 09:45:44 22° NW visible
17 Oct 2.1 08:22:50 10° SSE 08:29:04 50° E 08:32:24 27° NNE visible
17 Oct 3.6 10:07:18 10° S 10:12:37 28° WSW 10:17:32 12° WNW visible
18 Oct 3.5 07:12:51 10° ESE 07:15:37 13° E 07:18:22 10° ENE visible
18 Oct 1.8 08:53:49 10° SSE 09:00:18 87° E 09:04:13 26° N visible
18 Oct 4.3 10:39:32 10° SSW 10:43:19 17° WSW 10:47:06 10° W visible
19 Oct 2.9 07:42:06 10° SE 07:47:14 24° E 07:50:55 15° NE visible
19 Oct 2.5 09:25:08 10° S 09:31:23 55° WSW 09:36:02 19° NW visible
20 Oct 2.2 08:12:33 10° SSE 08:18:41 43° E 08:22:45 20° NNE visible
20 Oct 3.4 09:56:45 10° S 10:02:20 32° WSW 10:07:53 10° NW visible
21 Oct 1.8 08:43:29 10° SSE 08:49:59 76° E 08:54:35 20° N visible
21 Oct 4.2 10:28:50 10° SSW 10:33:07 19° WSW 10:37:24 10° WNW visible
22 Oct 3.1 07:32:04 10° SE 07:36:50 21° E 07:41:18 11° NE visible
22 Oct 2.3 09:14:45 10° S 09:21:08 63° WSW 09:26:27 15° NNW visible
22 Oct 4.6 11:02:35 10° SW 11:03:44 10° SW 11:04:53 10° WSW visible
23 Oct 2.4 08:02:23 10° SSE 08:08:21 38° E 08:13:11 15° NNE visible
23 Oct 3.2 09:46:20 10° S 09:52:08 37° WSW 09:57:56 10° NW visible
